Starlink 3612

operational
NORAD ID: 51770 Int'l Des: 2022-017 Owner: SPXS Country: US Constellation: starlink
LEOCIRCULAR

Starlink 3612について

説明を読み込み中...

リアルタイム位置

3D地球を読み込み中...

次回通過

高度履歴

Altitude vs Time

uPlot chart will show altitude changes over time

軌道要素

1 51770U 22017C 25259.14081361 .00000333 00000-0 38978-4 0 9997
2 51770 53.2184 42.7007 0001306 104.2066 255.9071 15.08844439196263
Epoch: Sep 16, 2025 • Age: 9 hours

現在のステータス

高度 548.4 km
速度 7.59 km/s
衛星直下点 -26.89°S, 168.43°W
打ち上げ日 Feb 25, 2022
運用期間 3.5 years
タイプ internet

技術仕様

分類 Payload
質量 297.00 kg
乾燥質量 275.00 kg
総質量 297.00 kg
長さ 0.20 m
直径 2.80 m
スパン 9.00 m
形状 Box + pan
製造者 SPXS
バスタイプ Starlink
フェーズステータス In Orbit
所有者/国 SPXS/US

大規模コンステレーション

Loading constellations...